Weather Roundup
Issued by NWS Corpus Christi, TX

Home | Current Version | Previous Version | Text Only | Print | Product List | Glossary On
Versions: 1 2 3 4 5 6 7 8 9 10 11 12 13 14 15 16 17 18 19 20 21 22 23 24 25 26 27 28 29 30 31 32 33 34 35 36 37 38 39 40 41 42 43 44 45 46 47 48 49 50
000
ASUS44 KCRP 242010
HRRCRP

SOUTH TEXAS REGIONAL WEATHER ROUNDUP
NATIONAL WEATHER SERVICE CORPUS CHRISTI TX
300 PM CDT MON JUL 24 2017


TXZ229>244-242100-
...CORPUS CHRISTI AREA OBSERVATIONS...

CITY           SKY/WX    TMP DP  RH WIND       PRES   REMARKS
CORPUS CHRISTI PTSUNNY   94  72  48 SE20G26   29.95F HX 102
NAS CORPUS CHR PTSUNNY   93  77  59 SE21G28   29.96F HX 107
ROCKPORT       SUNNY     91  74  57 S8G24     29.96F HX 100
KINGSVILLE NAS MOSUNNY   98  75  47 SE21G26   29.92F HX 110
ALICE          MOSUNNY   99  63  30 S13G26    29.91F HX 101
FALFURRIAS     SUNNY     98  63  30 S13G22    29.91F HX 100
$$

...VICTORIA AREA OBSERVATIONS...

CITY           SKY/WX    TMP DP  RH WIND       PRES   REMARKS
VICTORIA       SUNNY     98  64  32 S17G26    29.95F HX 100
BEEVILLE       FAIR      99  67  35 S18G24    29.93F HX 103
PLEASANTON     SUNNY    100  61  27 S8G17     29.93F HX 100
SAN ANTONIO    MOSUNNY   97  62  31 CALM      29.95F HX  98
$$

...LAREDO AREA OBSERVATIONS...

CITY           SKY/WX    TMP DP  RH WIND       PRES   REMARKS
LAREDO         SUNNY    101  60  25 SE15      29.92F HX 101
COTULLA        SUNNY    100  55  22 SE6       29.90F HX  98
DEL RIO        SUNNY     99  62  29 S13       29.91F HX 100
MCALLEN        MOSUNNY   98  71  41 SE16G28   29.91F HX 106
HEBBRONVILLE   MOSUNNY   97  62  30 S12G21    29.93F HX  98
$$

...OTHER TEXAS OBSERVATIONS...

CITY           SKY/WX    TMP DP  RH WIND       PRES   REMARKS
BROWNSVILLE    MOSUNNY   92  74  55 SE21G29   29.95F HX 101
HOUSTON        PTSUNNY   95  70  44 S13       29.97F HX 101
COL. STATION   CLOUDY    95  66  38 S13       29.95F HX  98
AUSTIN         PTSUNNY   99  62  29 S14G22    29.93F HX 100
WACO           CLOUDY    87  72  60 CALM      29.97F HX  93
FORT WORTH     MOSUNNY   89  73  59 S7        29.95F HX  97
WICHITA FALLS  SUNNY     90  72  55 SE8       29.96F HX  97
LUBBOCK        MOSUNNY   93  61  34 S12       30.03F HX  93
EL PASO        MOSUNNY   88  61  40 E5        30.04F
$$

...MARINE OBSERVATIONS...

STATION/POSITION TIME  SKY/WX   TEMP    WIND        PRES    VSBY  WAVE   SWELL
                                AIR SEA DIR/SP/G                  HT/PER HT/PER
                 (UTC)          (F)     (DEG/KT/KT) (MB)    (MI)  (FT/S) (FT/S)
PORT ARANSAS     1900            84 86  150/ 17/ 19 1015.3F
BUOY 90 E PORT A 1950            85 86  170/  8/ 10 1016.1F         4/ 6   3/ 6
BUOY 45 SE BAFFI 1950            85     160/ 16/ 16 1014.1F         5/ 7   2/12
BUOY 200 E PT IS 1950            86 87  140/ 10/ 12 1016.3F         3/ 6   3/ 6
BUOY 15 E GALVES 1950            86 87  230/ 10/ 12 1015.9F         3/ 6   2/ 6
$$



USA.gov is the U.S. government's official web portal to all federal, state and local government web resources and services.